Blackwell, OK

4:41 AM CDT on August 22, 2017 (GMT -0500)
Blackwell

Weather History for KBKN - December, 2012

Change the Weather History Date:

Sunday, December 30, 2012

  Actual Average (KPNC) Record (KPNC)
Temperature  
Mean Temperature 32 °F -  
Max Temperature 46 °F 45 °F 71 °F (1956)
Min Temperature 17 °F 25 °F 8 °F (2013)
Degree Days  
Heating Degree Days 34    
Moisture  
Dew Point 17 °F    
Average Humidity 56    
Maximum Humidity 86    
Minimum Humidity 29    
Precipitation  
Precipitation 0.00 in - - ()
Sea Level Pressure  
Sea Level Pressure 30.24 in    
Wind  
Wind Speed 9 mph (SSE)    
Max Wind Speed 28 mph    
Max Gust Speed 38 mph    
Visibility 10 miles    
Events      
Averages and records for this station are not official NWS values.
T = Trace of Precipitation, MM = Missing Value Source: NWS Daily Summary

Daily Weather History Graph

Daily Weather History Graph

Search for Another Location

Airport or City:

Trip Planner

Search our weather history database for the weather conditions in past years. The results will help you decide how hot, cold, wet, or windy it might be!

Date:

Astronomy

Dec. 30, 2012 Rise Set
Actual Time 7:41 AM CST 5:22 PM CST
Civil Twilight 7:12 AM CST 5:51 PM CST
Nautical Twilight 6:40 AM CST 6:24 PM CST
Astronomical Twilight 6:09 AM CST 6:55 PM CST
Moon 7:51 PM CST (12/30) 8:55 AM CST (12/30)
Length of Visible Light 10h 38m
Length of Day
9h 41m
Waning Gibbous, 95% of the Moon is Illuminated
Dec 30
Waning Gibbous
Jan 4
Last Quarter
Jan 11
New
Jan 18
First Quarter
Jan 26
Full

Hourly Weather History & Observations

Time (CST) Temp. Windchill Dew Point Humidity Pressure Visibility Wind Dir Wind Speed Gust Speed Precip Events Conditions
12:15 AM 24.8 °F 20.5 °F 15.8 °F 69% 30.33 in 10.0 mi South 3.5 mph - N/A   Clear
12:35 AM 23.0 °F 18.4 °F 15.8 °F 74% 30.31 in 10.0 mi ESE 3.5 mph - N/A   Clear
12:55 AM 23.0 °F 17.0 °F 15.8 °F 74% 30.32 in 10.0 mi SSE 4.6 mph - N/A   Clear
1:15 AM 21.2 °F 14.9 °F 15.8 °F 80% 30.32 in 10.0 mi SSE 4.6 mph - N/A   Clear
1:35 AM 21.2 °F 13.6 °F 15.8 °F 80% 30.32 in 10.0 mi SSE 5.8 mph - N/A   Clear
1:55 AM 23.0 °F 17.0 °F 15.8 °F 74% 30.32 in 10.0 mi SE 4.6 mph - N/A   Clear
2:15 AM 21.2 °F 14.9 °F 15.8 °F 80% 30.32 in 10.0 mi SE 4.6 mph - N/A   Clear
2:35 AM 23.0 °F 17.0 °F 17.6 °F 80% 30.33 in 10.0 mi SE 4.6 mph - N/A   Clear
2:55 AM 19.4 °F 12.8 °F 14.0 °F 80% 30.34 in 10.0 mi SE 4.6 mph - N/A   Clear
3:15 AM 17.6 °F 9.3 °F 14.0 °F 86% 30.33 in 10.0 mi SE 5.8 mph - N/A   Clear
3:35 AM 17.6 °F 9.3 °F 14.0 °F 86% 30.33 in 10.0 mi ESE 5.8 mph - N/A   Clear
3:55 AM 17.6 °F 9.3 °F 14.0 °F 86% 30.32 in 10.0 mi ESE 5.8 mph - N/A   Clear
4:15 AM 17.6 °F 9.3 °F 14.0 °F 86% 30.32 in 10.0 mi SE 5.8 mph - N/A   Clear
4:35 AM 17.6 °F 8.2 °F 14.0 °F 86% 30.31 in 10.0 mi ESE 6.9 mph - N/A   Clear
4:55 AM 19.4 °F 10.4 °F 15.8 °F 86% 30.30 in 10.0 mi ESE 6.9 mph - N/A   Clear
5:15 AM 23.0 °F 18.4 °F 17.6 °F 80% 30.30 in 10.0 mi SSE 3.5 mph - N/A   Clear
5:35 AM 23.0 °F - 15.8 °F 74% 30.30 in 10.0 mi Calm Calm - N/A   Clear
5:55 AM 23.0 °F 14.7 °F 17.6 °F 80% 30.29 in 10.0 mi SE 6.9 mph - N/A   Clear
6:15 AM 23.0 °F 15.8 °F 17.6 °F 80% 30.30 in 10.0 mi SE 5.8 mph - N/A   Clear
6:35 AM 23.0 °F 15.8 °F 17.6 °F 80% 30.31 in 10.0 mi SE 5.8 mph - N/A   Clear
6:55 AM 21.2 °F 13.6 °F 15.8 °F 80% 30.31 in 10.0 mi SE 5.8 mph - N/A   Clear
7:15 AM 19.4 °F 11.5 °F 15.8 °F 86% 30.30 in 10.0 mi ESE 5.8 mph - N/A   Clear
7:35 AM 19.4 °F 11.5 °F 15.8 °F 86% 30.30 in 10.0 mi SE 5.8 mph - N/A   Clear
7:55 AM 21.2 °F 11.7 °F 15.8 °F 80% 30.31 in 10.0 mi SE 8.1 mph - N/A   Clear
8:15 AM 21.2 °F 12.6 °F 17.6 °F 86% 30.31 in 10.0 mi SE 6.9 mph - N/A   Clear
8:35 AM 23.0 °F 14.7 °F 17.6 °F 80% 30.31 in 10.0 mi South 6.9 mph - N/A   Clear
8:55 AM 28.4 °F 18.5 °F 19.4 °F 69% 30.30 in 10.0 mi South 11.5 mph - N/A   Clear
9:15 AM 30.2 °F 21.3 °F 21.2 °F 69% 30.29 in 10.0 mi South 10.4 mph - N/A   Clear
9:35 AM 32.0 °F 23.0 °F 23.0 °F 69% 30.29 in 10.0 mi South 11.5 mph - N/A   Clear
9:55 AM 35.6 °F 25.9 °F 23.0 °F 60% 30.30 in 10.0 mi South 16.1 mph - N/A   Clear
10:15 AM 37.4 °F 27.5 °F 21.2 °F 52% 30.30 in 10.0 mi South 18.4 mph - N/A   Clear
10:35 AM 39.2 °F 29.3 °F 21.2 °F 49% 30.30 in 10.0 mi South 20.7 mph - N/A   Clear
10:55 AM 41.0 °F 30.9 °F 19.4 °F 42% 30.29 in 10.0 mi South 24.2 mph 29.9 mph N/A   Clear
11:15 AM 42.8 °F 33.3 °F 19.4 °F 39% 30.28 in 10.0 mi South 24.2 mph 29.9 mph N/A   Clear
11:35 AM 42.8 °F 32.7 °F 19.4 °F 39% 30.27 in 10.0 mi South 27.6 mph 32.2 mph N/A   Clear
11:55 AM 44.6 °F 35.1 °F 17.6 °F 34% 30.26 in 10.0 mi South 27.6 mph 35.7 mph N/A   Clear
12:15 PM 44.6 °F 35.3 °F 17.6 °F 34% 30.25 in 10.0 mi South 26.5 mph 34.5 mph N/A   Clear
12:35 PM 46.4 °F 37.7 °F 17.6 °F 32% 30.24 in 10.0 mi South 26.5 mph 33.4 mph N/A   Clear
12:55 PM 46.4 °F 37.5 °F 17.6 °F 32% 30.22 in 10.0 mi South 27.6 mph 38.0 mph N/A   Clear
1:15 PM 46.4 °F 37.9 °F 17.6 °F 32% 30.21 in 10.0 mi South 25.3 mph 33.4 mph N/A   Clear
1:35 PM 46.4 °F 38.1 °F 17.6 °F 32% 30.20 in 10.0 mi SSW 24.2 mph 33.4 mph N/A   Clear
1:55 PM 46.4 °F 37.9 °F 17.6 °F 32% 30.18 in 10.0 mi South 25.3 mph 29.9 mph N/A   Clear
2:15 PM 46.4 °F 38.1 °F 17.6 °F 32% 30.19 in 10.0 mi South 24.2 mph 28.8 mph N/A   Clear
2:35 PM 46.4 °F 38.3 °F 17.6 °F 32% 30.19 in 10.0 mi South 23.0 mph 29.9 mph N/A   Clear
2:55 PM 46.4 °F 38.5 °F 15.8 °F 29% 30.19 in 10.0 mi South 21.9 mph 32.2 mph N/A   Clear
3:15 PM 44.6 °F 35.9 °F 15.8 °F 31% 30.19 in 10.0 mi South 23.0 mph - N/A   Clear
3:35 PM 44.6 °F 36.6 °F 15.8 °F 31% 30.19 in 10.0 mi South 19.6 mph 26.5 mph N/A   Clear
3:55 PM 44.6 °F 36.4 °F 14.0 °F 29% 30.18 in 10.0 mi South 20.7 mph 26.5 mph N/A   Clear
4:15 PM 44.6 °F 36.9 °F 14.0 °F 29% 30.18 in 10.0 mi South 18.4 mph 28.8 mph N/A   Clear
4:35 PM 44.6 °F 37.4 °F 14.0 °F 29% 30.17 in 10.0 mi South 16.1 mph - N/A   Clear
4:55 PM 42.8 °F 35.1 °F 14.0 °F 31% 30.17 in 10.0 mi South 16.1 mph - N/A   Clear
5:15 PM 41.0 °F 33.5 °F 14.0 °F 33% 30.15 in 10.0 mi SSE 13.8 mph - N/A   Clear
5:35 PM 41.0 °F 33.9 °F 14.0 °F 33% 30.15 in 10.0 mi South 12.7 mph 18.4 mph N/A   Clear
5:55 PM 41.0 °F 34.7 °F 14.0 °F 33% 30.16 in 10.0 mi South 10.4 mph - N/A   Partly Cloudy
6:15 PM 39.2 °F 30.8 °F 14.0 °F 36% 30.16 in 10.0 mi South 15.0 mph - N/A   Scattered Clouds
6:35 PM 39.2 °F 32.5 °F 14.0 °F 36% 30.16 in 10.0 mi SSE 10.4 mph - N/A   Clear
6:55 PM 39.2 °F 32.0 °F 14.0 °F 36% 30.15 in 10.0 mi SSE 11.5 mph - N/A   Clear
7:15 PM 39.2 °F 32.0 °F 14.0 °F 36% 30.16 in 10.0 mi South 11.5 mph - N/A   Clear
7:35 PM 37.4 °F 30.3 °F 14.0 °F 38% 30.16 in 10.0 mi South 10.4 mph - N/A   Clear
7:55 PM 37.4 °F 30.8 °F 14.0 °F 38% 30.15 in 10.0 mi SSE 9.2 mph - N/A   Clear
8:15 PM 37.4 °F 32.1 °F 15.8 °F 41% 30.15 in 10.0 mi SSE 6.9 mph - N/A   Clear
8:35 PM 35.6 °F 28.6 °F 15.8 °F 44% 30.15 in 10.0 mi SSE 9.2 mph - N/A   Clear
8:55 PM 35.6 °F 29.2 °F 15.8 °F 44% 30.15 in 10.0 mi SSE 8.1 mph - N/A   Clear
9:15 PM 35.6 °F 30.7 °F 17.6 °F 48% 30.14 in 10.0 mi SSE 5.8 mph - N/A   Mostly Cloudy
9:35 PM 35.6 °F 29.9 °F 17.6 °F 48% 30.15 in 10.0 mi SSE 6.9 mph - N/A   Scattered Clouds
9:55 PM 35.6 °F 31.7 °F 19.4 °F 52% 30.13 in 10.0 mi SE 4.6 mph - N/A   Clear
10:15 PM 35.6 °F 30.7 °F 19.4 °F 52% 30.14 in 10.0 mi SE 5.8 mph - N/A   Clear
10:35 PM 35.6 °F 29.9 °F 19.4 °F 52% 30.14 in 10.0 mi SE 6.9 mph - N/A   Partly Cloudy
10:55 PM 35.6 °F 30.7 °F 19.4 °F 52% 30.14 in 10.0 mi ESE 5.8 mph - N/A   Partly Cloudy
11:15 PM 33.8 °F 28.6 °F 19.4 °F 56% 30.14 in 10.0 mi East 5.8 mph - N/A   Partly Cloudy
11:35 PM 32.0 °F 25.6 °F 19.4 °F 60% 30.14 in 10.0 mi East 6.9 mph - N/A   Partly Cloudy
11:55 PM 32.0 °F 27.5 °F 19.4 °F 60% 30.14 in 10.0 mi East 4.6 mph - N/A   Partly Cloudy